YAOGAN-3

Last updated on Sun Dec 07 2025 00:02:30 GMT+0000 (Coordinated Universal Time)

1 32289U 07055A 25340.63749618 .00004732 00000+0 49861-3 0 9995 2 32289 97.8368 7.3179 0001514 77.4051 282.7336 14.89815432977187
UTC large
Height (km)
Speed (km/s)
/
Latitude / Longitude
Inclination (degrees)
Orbital Period (minutes)
Azimuth
Elevation
Range (km)
Doppler Factor

Next 0 passes for location: London (51.5072 / 0.1276)

Sorry there are no passes over London.